SCP
0 0 0 0 0 0 0 0 0 0 0 0 0 0 0 0 0 0 0 0 0 0 0 0 0 0 0 0 0 0 0 0 0 0 0 0 0 0 0 0 0 0 0
0 0 0 0 0 0 0 0 0 0 0 0 0 0 0 0 0 0 0 0 0 0 0 0 0 0 0 0 0 0 0 0 0 0 0 0 0 0 0 0 0 0 0
0 0 0 0 0 0 0 0 0 0 0 0 0 0 0 0 0 0 0 0 0 0 0 0 0 0 0 0 0 0 0 0 0 0 0 0 0 0 0 0 0 0 0
0 0 0 0 0 0 0 0 0 0 0 0 0 0 0 0 0 0 0 0 0 0 0 0 0 0 0 0 0 0 0 0 0 0 0 0 0 0 0 0 0 0 0
0 0 0 0 0 0 0 0 0 0 0 0 0 0 0 0 0 0 0 0 0 0 0 0 0 0 0 0 0 0 0 0 0 0 0 0 0 0 0 0 0 0 0
0 0 0 0 0 0 0 0 0 0 0 0 0 0 0 0 0 0 0 0 0 0 0 0 0 0 0 0 0 0 0 0 0 0 0 0 0 0 0 0 0 0 0
0 0 0 0 0 0 0 0 0 0 0 0 0 0 0 0 0 0 0 0 0 0 0 0 0 0 0 0 0 0 0 0 0 0 0 0 0 0 0 0 0 0 0
0 0 -0 -0 0 0 0 0 0 0 0 0 0 0 0 0 0 0 0 0 0 0 0 0 0 0 0 0 0 0 0 0 0 0 0 0 0 0 0 0 0 0 0
0 0 0 0 0 -0 0 0 0 0 0 0 0 0 0 0 0 0 0 0 0 0 0 0 0 0 0 0 0 0 0 0 0 0 0 0 0 0 0 0 0 0 0
0 0 0 0 0 0 0 0 -0 0 0 0 0 0 0 0 0 0 0 0 0 0 0 0 0 0 0 0 0 0 0 0 0 0 0 0 0 0 0 0 0 0 0
0 0 0 0 0 0 0 -0 0 0 0 0 0 0 0 0 0 0 0 0 0 0 0 0 0 0 0 0 0 0 0 0 0 0 0 0 0 0 0 0 0 0 0
-0 -0 -0 -0 -0 0 0 0 0 0 0 0 0 0 0 0 0 0 0 0 0 0 0 0 0 0 0 0 0 0 0 0 0 0 0 0 0 0 0 0 0 0 0
-0 0 0 0 0 0 -0 -0 0 0 0 0 0 0 0 0 0 0 0 0 0 0 0 0 0 0 0 0 0 0 0 0 0 0 0 0 0 0 0 0 0 0 0
-0 -0 -0 0 0 0 0 0 0 0 0 0 0 0 0 0 0 0 0 0 0 0 0 0 0 0 0 0 0 0 0 0 0 0 0 0 0 0 0 0 0 0 0
0 0 0 0 0 0 0 0 0 0 0 0 0 0 0 0 0 0 0 0 0 0 0 0 0 0 0 0 0 0 0 0 0 0 0 0 0 0 0 0 0 0 0
0 0 0 0 0 0 0 0 0 0 0 0 0 0 0 0 0 0 0 0 0 0 0 0 0 0 0 0 0 0 0 0 0 0 0 0 0 0 0 0 0 0 0
0 0 0 0 0 0 0 0 0 0 0 0 0 0 0 0 0 0 0 0 0 0 0 0 0 0 0 0 0 0 0 0 0 0 0 0 0 0 0 0 0 0 0
-0 0 0 0 0 0 0 0 0 0 0 0 0 0 0 0 0 0 0 0 0 0 0 0 0 0 0 0 0 0 0 0 0 0 0 0 0 0 0 0 0 0 0
-0 -0 0 0 0 0 0 0 0 0 0 0 0 0 0 0 0 0 0 0 0 0 0 0 0 0 0 0 0 0 0 0 0 0 0 0 0 0 0 0 0 0 0
-0 0 0 0 0 0 0 0 0 0 0 0 0 0 0 0 0 0 0 0 0 0 0 0 0 0 0 0 0 0 0 0 0 0 0 0 0 0 0 0 0 0 0
0 0 0 0 0 0 0 0 0 0 0 0 0 0 0 0 0 0 0 0 0 0 0 0 0 0 0 0 0 0 0 0 0 0 0 0 0 0 0 0 0 0 0
0 0 0 0 0 0 0 0 0 0 0 0 0 0 0 0 0 0 0 0 0 0 0 0 0 0 0 0 0 0 0 0 0 0 0 0 0 0 0 0 0 0 0
0 0 0 0 0 0 0 0 0 0 0 0 0 0 0 0 0 0 0 0 0 0 0 0 0 0 0 0 0 0 0 0 0 0 0 0 0 0 0 0 0 0 0
0 0 0 0 0 0 0 -0 0 0 0 0 0 0 0 0 0 0 0 0 0 0 0 0 0 0 0 0 0 0 0 0 0 0 0 0 0 0 0 0 0 0 0
0 0 0 0 0 0 0 0 0 0 0 0 0 0 0 0 0 0 0 0 0 0 0 0 0 0 0 0 0 0 0 0 0 0 0 0 0 0 0 0 0 0 0
0 0 0 0 0 0 0 0 0 0 0 0 0 0 0 0 0 0 0 0 0 0 0 0 0 0 0 0 0 0 0 0 0 0 0 0 0 0 0 0 -0 -0 0
Wind_Speed_500mb
58 55 50 51 59 63 66 67 71 75 79 85 85 82 83 77 78 79 76 71 69 67 69 70 68 68 74 65 66 64 64 61 60 53 50 53 52 56 59 60 63 63 59
60 59 55 56 58 61 67 71 72 75 80 86 87 87 83 84 79 84 83 81 78 77 76 77 77 76 75 77 77 73 77 75 72 69 58 43 59 65 65 68 70 68 66
35 32 41 49 53 63 64 73 74 75 77 81 87 91 92 91 85 90 89 88 85 83 83 82 83 82 83 85 80 82 86 86 82 83 58 28 36 59 72 76 76 76 76
29 28 25 27 38 51 53 68 78 80 77 80 87 90 92 95 91 91 90 92 87 88 87 84 81 84 85 87 92 89 93 85 97 89 93 76 57 37 39 73 81 82 82
20 14 10 11 17 24 33 44 69 85 82 80 81 84 90 92 90 87 86 90 95 93 89 88 87 87 88 92 93 96 98 101 99 105 97 102 86 75 64 59 69 84 91
15 13 10 13 20 25 31 40 46 65 78 79 79 80 80 84 86 85 84 86 85 89 97 96 95 92 91 95 98 98 102 103 107 95 115 108 109 96 94 82 75 75 82
22 23 21 19 22 22 22 27 34 41 53 66 72 72 75 79 82 82 80 80 81 83 84 90 97 100 101 101 101 109 107 115 112 112 121 107 115 119 105 102 88 66 78
30 35 38 37 31 26 18 19 24 30 37 47 55 59 65 71 73 74 74 75 77 78 77 78 81 86 94 102 109 111 111 112 123 110 120 103 115 133 106 104 111 84 73
39 46 48 54 56 46 34 28 27 31 31 36 44 49 54 58 62 62 62 67 69 71 71 72 76 79 83 89 95 105 108 113 111 116 118 123 112 135 110 111 118 98 66
33 44 34 42 48 47 49 45 33 23 22 25 23 26 32 39 44 48 53 56 59 62 65 67 69 70 74 78 82 91 96 104 110 114 105 110 117 126 113 105 116 111 98
52 49 29 39 41 42 42 40 38 30 15 10 15 25 30 31 36 42 46 49 53 58 63 66 67 67 68 71 77 85 91 96 105 110 115 106 114 111 107 112 113 106 106
49 39 40 40 36 37 42 42 41 39 36 34 34 40 36 39 47 53 56 57 58 61 65 67 71 70 67 69 74 80 83 88 97 102 106 112 105 102 112 111 108 106 106
46 42 40 49 57 60 59 48 41 38 36 40 46 50 50 48 51 58 63 63 63 67 68 73 75 74 70 69 71 74 78 83 92 93 96 102 99 103 104 100 101 102 97
35 40 45 50 55 60 61 49 37 39 43 49 54 56 56 60 66 67 68 67 67 70 71 73 75 75 72 72 72 72 73 72 83 86 87 93 99 92 95 98 103 101 88
38 37 38 40 43 49 51 48 47 47 51 55 59 61 62 68 71 72 74 76 75 75 73 74 74 73 73 74 73 72 70 68 77 76 82 89 86 90 95 91 90 79 75
31 33 34 36 39 41 45 50 54 55 56 59 63 67 69 70 72 72 71 71 75 77 77 77 73 72 72 68 69 68 65 65 72 75 79 81 82 85 84 76 68 67 74
31 34 36 38 40 44 50 54 58 65 64 63 63 67 68 66 64 66 68 67 64 63 64 65 65 65 64 63 64 64 65 67 71 73 78 76 75 76 70 64 60 57 58
40 37 38 39 42 45 44 51 56 60 62 63 63 61 63 64 63 63 65 68 69 68 65 62 58 59 57 56 58 56 65 67 69 71 70 70 68 65 64 58 55 53 59
42 41 42 46 47 48 50 55 53 64 62 62 61 61 63 64 61 60 60 62 64 62 59 57 56 59 55 52 51 57 62 65 66 65 64 61 58 52 49 51 57 61 56
38 43 48 50 50 51 54 58 57 57 64 65 64 62 60 61 63 63 60 56 57 60 58 56 52 53 56 51 49 56 58 59 58 58 56 51 45 39 43 51 62 62 60
45 47 46 49 52 56 54 56 58 57 56 57 58 60 59 59 57 59 61 56 52 53 50 48 46 47 49 47 48 47 48 48 48 48 47 43 36 36 42 52 57 54 50
46 49 53 56 56 56 60 61 55 55 55 56 55 58 60 58 56 54 54 52 47 44 39 38 37 35 42 44 43 40 38 35 34 33 33 31 32 35 42 45 49 50 41
50 52 54 57 55 56 57 58 56 56 56 57 60 58 58 58 54 50 46 42 39 35 31 28 33 31 32 31 27 26 25 18 18 20 17 18 26 34 39 37 39 43 27
59 60 57 55 56 53 53 55 58 62 62 63 60 58 54 48 45 42 36 32 29 25 19 21 23 21 21 21 20 26 24 19 11 10 14 18 33 41 47 40 43 27 26
58 58 60 61 61 60 57 56 57 59 61 58 55 49 45 40 37 35 31 25 23 21 19 16 15 11 11 13 16 19 18 9 9 13 20 28 44 48 51 38 39 36 36
61 62 62 63 64 62 58 55 55 54 58 55 47 43 41 37 34 25 22 10 7 5 3 4 7 10 10 16 21 18 13 10 14 16 20 26 32 38 42 52 53 46 40
Wind_Direction_500mb
266 262 258 256 252 248 244 243 240 239 238 235 234 235 235 236 232 235 238 239 243 245 237 241 242 242 240 245 243 238 233 227 223 224 224 230 228 229 229 232 234 235 236
268 265 259 255 252 250 247 245 245 242 241 240 242 242 244 244 239 236 240 241 240 243 243 240 243 243 244 241 242 240 233 228 228 220 224 221 230 234 233 232 234 236 237
281 276 266 260 258 254 252 248 248 247 245 244 242 242 242 244 246 242 238 240 240 243 247 245 244 247 246 247 250 242 241 236 230 227 226 212 227 235 236 237 236 235 237
288 290 285 273 263 257 262 257 251 250 250 245 245 247 249 249 252 248 247 239 237 243 248 251 252 251 250 252 249 252 245 244 238 233 231 234 244 224 234 239 238 238 237
55 45 9 308 299 278 270 266 255 249 249 249 250 253 253 256 257 256 254 249 243 244 245 245 248 250 252 254 256 251 245 245 247 244 242 235 235 241 243 242 237 238 237
19 5 355 323 306 289 277 267 262 256 251 250 252 255 258 258 259 260 258 258 254 248 246 248 250 253 254 255 257 255 259 253 250 254 245 245 245 248 238 243 245 241 240
22 7 348 330 320 313 295 279 265 255 255 253 254 260 261 262 263 265 265 263 261 256 253 249 249 250 253 255 256 258 258 252 250 253 249 254 253 252 250 251 244 243 243
32 26 22 13 358 337 321 293 282 269 261 258 259 262 263 263 265 266 267 266 264 262 262 260 257 257 257 256 257 256 257 256 253 251 260 254 253 253 249 259 248 238 242
63 47 37 30 26 18 2 337 309 288 273 262 259 261 263 263 265 267 268 268 267 266 264 262 259 258 257 258 257 257 256 254 254 253 261 252 264 261 253 265 255 246 242
28 8 15 21 21 15 18 9 359 333 294 285 287 283 276 271 271 268 265 266 268 268 268 266 264 263 262 261 259 259 260 255 255 258 256 256 266 268 259 262 260 253 247
2 356 358 3 7 6 3 1 0 3 9 345 328 329 319 300 287 279 275 271 270 270 268 268 268 266 265 264 264 262 261 258 256 256 258 265 265 255 261 260 265 253 251
343 342 347 347 348 349 345 342 338 326 319 307 301 309 310 297 289 284 281 275 271 270 270 270 269 267 266 267 267 265 262 259 255 255 259 260 262 263 264 263 262 254 250
341 339 334 326 322 325 329 327 320 314 308 300 300 298 293 295 293 291 288 279 274 270 270 269 268 268 269 270 269 267 265 260 256 258 259 263 260 266 266 262 258 255 249
343 330 325 320 316 317 318 318 309 303 300 293 293 290 287 288 292 288 284 280 278 277 274 273 272 272 272 272 270 267 265 262 257 259 265 266 261 262 265 262 261 255 245
334 334 328 320 315 310 308 308 308 308 299 291 287 288 288 289 287 283 280 278 277 276 273 273 270 269 268 269 270 269 265 259 258 261 263 264 263 265 265 264 263 254 244
355 348 339 331 327 321 317 312 310 307 301 294 290 288 287 287 285 283 282 279 276 275 274 272 273 270 268 267 267 264 261 260 261 263 268 265 263 267 266 262 257 253 243
344 340 338 337 335 334 327 320 312 308 308 302 298 295 292 289 287 285 284 283 281 279 276 273 271 271 270 270 268 263 256 255 256 261 266 268 265 264 259 255 249 243 235
342 336 330 328 324 320 319 321 321 314 310 309 307 305 301 297 294 289 286 284 284 282 278 272 267 266 264 264 266 263 259 256 257 261 265 264 264 261 257 250 238 218 198
326 328 326 326 323 319 315 313 313 317 313 309 308 307 305 303 302 301 296 289 284 279 275 273 267 264 262 261 261 258 259 258 259 262 265 263 261 258 247 240 222 201 189
319 315 315 317 319 321 319 313 310 313 316 311 308 307 306 304 304 302 300 295 288 282 276 270 268 269 268 260 252 254 259 259 261 265 263 258 252 244 238 223 207 192 187
315 316 316 316 319 319 317 317 317 310 306 307 308 307 305 305 302 299 299 296 293 287 282 274 270 269 267 260 256 254 258 260 263 263 261 256 235 216 217 211 198 191 192
317 316 317 320 324 323 320 317 315 310 306 307 306 306 306 304 302 299 296 293 293 289 285 283 275 269 267 263 254 246 250 252 256 256 256 248 227 209 204 194 195 193 212
317 317 316 316 319 320 321 320 320 314 310 310 307 306 305 303 300 297 293 293 291 286 286 284 282 275 269 264 251 216 231 236 251 244 234 222 208 191 189 204 201 206 195
308 309 309 309 310 311 313 315 315 313 310 307 305 303 301 301 298 289 287 288 287 281 275 273 270 274 269 254 235 212 217 234 237 190 177 189 187 187 193 207 197 203 239
303 304 304 304 304 304 306 307 311 311 310 306 306 302 298 297 290 283 273 270 266 270 258 239 241 228 240 232 207 207 207 210 156 152 153 170 183 189 194 199 208 233 251
295 294 294 295 297 297 298 298 300 305 305 303 301 300 295 290 283 273 265 211 217 191 232 168 184 172 175 181 175 174 175 146 138 152 175 183 193 200 208 218 228 249 258
Wind_Speed_850mb
58 55 50 51 59 63 66 67 71 75 79 85 85 82 83 77 78 79 76 71 69 67 69 70 68 68 74 65 66 64 64 61 60 53 50 53 52 56 59 60 63 63 59
60 59 55 56 58 61 67 71 72 75 80 86 87 87 83 84 79 84 83 81 78 77 76 77 77 76 75 77 77 73 77 75 72 69 58 43 59 65 65 68 70 68 66
35 32 41 49 53 63 64 73 74 75 77 81 87 91 92 91 85 90 89 88 85 83 83 82 83 82 83 85 80 82 86 86 82 83 58 28 36 59 72 76 76 76 76
29 28 25 27 38 51 53 68 78 80 77 80 87 90 92 95 91 91 90 92 87 88 87 84 81 84 85 87 92 89 93 85 97 89 93 76 57 37 39 73 81 82 82
20 14 10 11 17 24 33 44 69 85 82 80 81 84 90 92 90 87 86 90 95 93 89 88 87 87 88 92 93 96 98 101 99 105 97 102 86 75 64 59 69 84 91
15 13 10 13 20 25 31 40 46 65 78 79 79 80 80 84 86 85 84 86 85 89 97 96 95 92 91 95 98 98 102 103 107 95 115 108 109 96 94 82 75 75 82
22 23 21 19 22 22 22 27 34 41 53 66 72 72 75 79 82 82 80 80 81 83 84 90 97 100 101 101 101 109 107 115 112 112 121 107 115 119 105 102 88 66 78
30 35 38 37 31 26 18 19 24 30 37 47 55 59 65 71 73 74 74 75 77 78 77 78 81 86 94 102 109 111 111 112 123 110 120 103 115 133 106 104 111 84 73
39 46 48 54 56 46 34 28 27 31 31 36 44 49 54 58 62 62 62 67 69 71 71 72 76 79 83 89 95 105 108 113 111 116 118 123 112 135 110 111 118 98 66
33 44 34 42 48 47 49 45 33 23 22 25 23 26 32 39 44 48 53 56 59 62 65 67 69 70 74 78 82 91 96 104 110 114 105 110 117 126 113 105 116 111 98
52 49 29 39 41 42 42 40 38 30 15 10 15 25 30 31 36 42 46 49 53 58 63 66 67 67 68 71 77 85 91 96 105 110 115 106 114 111 107 112 113 106 106
49 39 40 40 36 37 42 42 41 39 36 34 34 40 36 39 47 53 56 57 58 61 65 67 71 70 67 69 74 80 83 88 97 102 106 112 105 102 112 111 108 106 106
46 42 40 49 57 60 59 48 41 38 36 40 46 50 50 48 51 58 63 63 63 67 68 73 75 74 70 69 71 74 78 83 92 93 96 102 99 103 104 100 101 102 97
35 40 45 50 55 60 61 49 37 39 43 49 54 56 56 60 66 67 68 67 67 70 71 73 75 75 72 72 72 72 73 72 83 86 87 93 99 92 95 98 103 101 88
38 37 38 40 43 49 51 48 47 47 51 55 59 61 62 68 71 72 74 76 75 75 73 74 74 73 73 74 73 72 70 68 77 76 82 89 86 90 95 91 90 79 75
31 33 34 36 39 41 45 50 54 55 56 59 63 67 69 70 72 72 71 71 75 77 77 77 73 72 72 68 69 68 65 65 72 75 79 81 82 85 84 76 68 67 74
31 34 36 38 40 44 50 54 58 65 64 63 63 67 68 66 64 66 68 67 64 63 64 65 65 65 64 63 64 64 65 67 71 73 78 76 75 76 70 64 60 57 58
40 37 38 39 42 45 44 51 56 60 62 63 63 61 63 64 63 63 65 68 69 68 65 62 58 59 57 56 58 56 65 67 69 71 70 70 68 65 64 58 55 53 59
42 41 42 46 47 48 50 55 53 64 62 62 61 61 63 64 61 60 60 62 64 62 59 57 56 59 55 52 51 57 62 65 66 65 64 61 58 52 49 51 57 61 56
38 43 48 50 50 51 54 58 57 57 64 65 64 62 60 61 63 63 60 56 57 60 58 56 52 53 56 51 49 56 58 59 58 58 56 51 45 39 43 51 62 62 60
45 47 46 49 52 56 54 56 58 57 56 57 58 60 59 59 57 59 61 56 52 53 50 48 46 47 49 47 48 47 48 48 48 48 47 43 36 36 42 52 57 54 50
46 49 53 56 56 56 60 61 55 55 55 56 55 58 60 58 56 54 54 52 47 44 39 38 37 35 42 44 43 40 38 35 34 33 33 31 32 35 42 45 49 50 41
50 52 54 57 55 56 57 58 56 56 56 57 60 58 58 58 54 50 46 42 39 35 31 28 33 31 32 31 27 26 25 18 18 20 17 18 26 34 39 37 39 43 27
59 60 57 55 56 53 53 55 58 62 62 63 60 58 54 48 45 42 36 32 29 25 19 21 23 21 21 21 20 26 24 19 11 10 14 18 33 41 47 40 43 27 26
58 58 60 61 61 60 57 56 57 59 61 58 55 49 45 40 37 35 31 25 23 21 19 16 15 11 11 13 16 19 18 9 9 13 20 28 44 48 51 38 39 36 36
61 62 62 63 64 62 58 55 55 54 58 55 47 43 41 37 34 25 22 10 7 5 3 4 7 10 10 16 21 18 13 10 14 16 20 26 32 38 42 52 53 46 40
Wind_Direction_850mb
266 262 258 256 252 248 244 243 240 239 238 235 234 235 235 236 232 235 238 239 243 245 237 241 242 242 240 245 243 238 233 227 223 224 224 230 228 229 229 232 234 235 236
268 265 259 255 252 250 247 245 245 242 241 240 242 242 244 244 239 236 240 241 240 243 243 240 243 243 244 241 242 240 233 228 228 220 224 221 230 234 233 232 234 236 237
281 276 266 260 258 254 252 248 248 247 245 244 242 242 242 244 246 242 238 240 240 243 247 245 244 247 246 247 250 242 241 236 230 227 226 212 227 235 236 237 236 235 237
288 290 285 273 263 257 262 257 251 250 250 245 245 247 249 249 252 248 247 239 237 243 248 251 252 251 250 252 249 252 245 244 238 233 231 234 244 224 234 239 238 238 237
55 45 9 308 299 278 270 266 255 249 249 249 250 253 253 256 257 256 254 249 243 244 245 245 248 250 252 254 256 251 245 245 247 244 242 235 235 241 243 242 237 238 237
19 5 355 323 306 289 277 267 262 256 251 250 252 255 258 258 259 260 258 258 254 248 246 248 250 253 254 255 257 255 259 253 250 254 245 245 245 248 238 243 245 241 240
22 7 348 330 320 313 295 279 265 255 255 253 254 260 261 262 263 265 265 263 261 256 253 249 249 250 253 255 256 258 258 252 250 253 249 254 253 252 250 251 244 243 243
32 26 22 13 358 337 321 293 282 269 261 258 259 262 263 263 265 266 267 266 264 262 262 260 257 257 257 256 257 256 257 256 253 251 260 254 253 253 249 259 248 238 242
63 47 37 30 26 18 2 337 309 288 273 262 259 261 263 263 265 267 268 268 267 266 264 262 259 258 257 258 257 257 256 254 254 253 261 252 264 261 253 265 255 246 242
28 8 15 21 21 15 18 9 359 333 294 285 287 283 276 271 271 268 265 266 268 268 268 266 264 263 262 261 259 259 260 255 255 258 256 256 266 268 259 262 260 253 247
2 356 358 3 7 6 3 1 0 3 9 345 328 329 319 300 287 279 275 271 270 270 268 268 268 266 265 264 264 262 261 258 256 256 258 265 265 255 261 260 265 253 251
343 342 347 347 348 349 345 342 338 326 319 307 301 309 310 297 289 284 281 275 271 270 270 270 269 267 266 267 267 265 262 259 255 255 259 260 262 263 264 263 262 254 250
341 339 334 326 322 325 329 327 320 314 308 300 300 298 293 295 293 291 288 279 274 270 270 269 268 268 269 270 269 267 265 260 256 258 259 263 260 266 266 262 258 255 249
343 330 325 320 316 317 318 318 309 303 300 293 293 290 287 288 292 288 284 280 278 277 274 273 272 272 272 272 270 267 265 262 257 259 265 266 261 262 265 262 261 255 245
334 334 328 320 315 310 308 308 308 308 299 291 287 288 288 289 287 283 280 278 277 276 273 273 270 269 268 269 270 269 265 259 258 261 263 264 263 265 265 264 263 254 244
355 348 339 331 327 321 317 312 310 307 301 294 290 288 287 287 285 283 282 279 276 275 274 272 273 270 268 267 267 264 261 260 261 263 268 265 263 267 266 262 257 253 243
344 340 338 337 335 334 327 320 312 308 308 302 298 295 292 289 287 285 284 283 281 279 276 273 271 271 270 270 268 263 256 255 256 261 266 268 265 264 259 255 249 243 235
342 336 330 328 324 320 319 321 321 314 310 309 307 305 301 297 294 289 286 284 284 282 278 272 267 266 264 264 266 263 259 256 257 261 265 264 264 261 257 250 238 218 198
326 328 326 326 323 319 315 313 313 317 313 309 308 307 305 303 302 301 296 289 284 279 275 273 267 264 262 261 261 258 259 258 259 262 265 263 261 258 247 240 222 201 189
319 315 315 317 319 321 319 313 310 313 316 311 308 307 306 304 304 302 300 295 288 282 276 270 268 269 268 260 252 254 259 259 261 265 263 258 252 244 238 223 207 192 187
315 316 316 316 319 319 317 317 317 310 306 307 308 307 305 305 302 299 299 296 293 287 282 274 270 269 267 260 256 254 258 260 263 263 261 256 235 216 217 211 198 191 192
317 316 317 320 324 323 320 317 315 310 306 307 306 306 306 304 302 299 296 293 293 289 285 283 275 269 267 263 254 246 250 252 256 256 256 248 227 209 204 194 195 193 212
317 317 316 316 319 320 321 320 320 314 310 310 307 306 305 303 300 297 293 293 291 286 286 284 282 275 269 264 251 216 231 236 251 244 234 222 208 191 189 204 201 206 195
308 309 309 309 310 311 313 315 315 313 310 307 305 303 301 301 298 289 287 288 287 281 275 273 270 274 269 254 235 212 217 234 237 190 177 189 187 187 193 207 197 203 239
303 304 304 304 304 304 306 307 311 311 310 306 306 302 298 297 290 283 273 270 266 270 258 239 241 228 240 232 207 207 207 210 156 152 153 170 183 189 194 199 208 233 251
295 294 294 295 297 297 298 298 300 305 305 303 301 300 295 290 283 273 265 211 217 191 232 168 184 172 175 181 175 174 175 146 138 152 175 183 193 200 208 218 228 249 258